Location: Colossi of Memnon
(25.7167°N, 32.6167°E)
Time: 21:17:54
(UTC+00:00)

Landsat 5 - Pass Details

Date: 05 March 2021
Orbit: 529 x 652 km, 98.2° (Epoch: 20 April)

Event Time Altitude Azimuth Distance (km) Brightness Sun altitude
Rises 02:14:23 0° 160° (SSE) 2,665 7.0 -26.6°
Reaches altitude 10° 02:16:30 10° 157° (SSE) 1,771 6.1 -26.1°
Enters shadow 02:19:04 39° 140° (SE) 798 4.3 -25.5°
